Location: Proctor
(47.8934°N, 114.3048°W)
Time: 11:51:12
(UTC+00:00)

Courier 1B Rocket - Pass Details

Date: 22 June 2024
Orbit: 920 x 1201 km, 28.2° (Epoch: 17 July)

Event Time Altitude Azimuth Distance (km) Brightness Sun altitude
Rises 10:59:20 0° 223° (SW) 3,701 - -5.8°
Exits shadow 11:01:29 - 212° (SSW) 3,187 7.0 -5.5°
Reaches altitude 10° 11:03:34 10° 198° (SSW) 2,815 6.9 -5.3°
Maximum altitude 11:06:38 13° 171° (S) 2,618 6.9 -4.9°
Drops below altitude 10° 11:09:47 10° 144° (SE) 2,913 7.4 -4.5°
Sets 11:14:19 0° 120° (ESE) 3,938 8.4 -4.0°
